TimeEDT,TemperatureF,Dew PointF,Humidity,Sea Level PressureIn,VisibilityMPH,Wind Direction,Wind SpeedMPH,Gust SpeedMPH,PrecipitationIn,Events,Conditions,WindDirDegrees,DateUTC
12:15 AM,64.2,63.3,97,29.82,0.2,SSW,3.5,-,N/A,Fog,Fog,210,2013-09-02 04:15:00
12:35 AM,64.2,63.3,97,29.81,0.8,SW,5.8,-,N/A,,Overcast,230,2013-09-02 04:35:00
12:55 AM,65.5,64.6,97,29.82,2.0,WSW,4.6,-,N/A,,Clear,240,2013-09-02 04:55:00
1:15 AM,65.5,64.6,97,29.82,2.5,WSW,3.5,-,N/A,,Clear,250,2013-09-02 05:15:00
1:35 AM,65.3,64.4,97,29.80,2.5,Calm,Calm,-,0.01,,Clear,0,2013-09-02 05:35:00
1:55 AM,64.9,64.0,97,29.79,4.0,South,3.5,-,0.01,,Clear,180,2013-09-02 05:55:00
2:15 AM,64.4,63.5,97,29.79,2.5,SW,4.6,-,N/A,,Clear,220,2013-09-02 06:15:00
2:35 AM,64.6,63.7,97,29.80,2.5,WSW,3.5,-,N/A,,Clear,240,2013-09-02 06:35:00
2:55 AM,64.6,63.7,97,29.81,2.5,Calm,Calm,-,N/A,,Clear,0,2013-09-02 06:55:00
3:15 AM,64.4,63.5,97,29.81,3.0,Calm,Calm,-,N/A,,Clear,0,2013-09-02 07:15:00
3:35 AM,64.9,64.2,98,29.81,3.0,Calm,Calm,-,N/A,,Mostly Cloudy,0,2013-09-02 07:35:00
3:55 AM,66.2,65.3,97,29.81,3.0,South,3.5,-,N/A,Rain,Rain,180,2013-09-02 07:55:00
4:15 AM,66.7,66.0,98,29.81,4.0,Calm,Calm,-,N/A,,Overcast,0,2013-09-02 08:15:00
4:35 AM,66.2,65.7,98,29.81,3.0,SSW,3.5,-,N/A,,Mostly Cloudy,210,2013-09-02 08:35:00
4:55 AM,65.7,64.9,98,29.80,3.0,WSW,3.5,-,N/A,,Mostly Cloudy,250,2013-09-02 08:55:00
5:15 AM,64.9,64.4,98,29.81,2.5,SW,4.6,-,0.01,,Scattered Clouds,230,2013-09-02 09:15:00
5:35 AM,65.1,64.4,98,29.80,2.5,WSW,3.5,-,0.01,,Clear,240,2013-09-02 09:35:00
5:55 AM,65.3,64.4,97,29.81,2.5,SW,5.8,-,0.01,,Clear,220,2013-09-02 09:55:00
6:15 AM,65.5,64.8,98,29.82,2.5,WSW,4.6,-,N/A,,Clear,240,2013-09-02 10:15:00
6:35 AM,66.0,65.3,98,29.82,2.0,West,3.5,-,N/A,,Mostly Cloudy,260,2013-09-02 10:35:00
6:55 AM,66.2,65.5,98,29.82,2.0,West,4.6,-,N/A,,Overcast,270,2013-09-02 10:55:00
7:15 AM,66.9,66.0,97,29.84,1.8,West,4.6,-,N/A,,Overcast,280,2013-09-02 11:15:00
7:35 AM,67.6,66.7,97,29.84,1.5,WNW,4.6,-,N/A,,Overcast,300,2013-09-02 11:35:00
7:55 AM,68.0,67.1,97,29.85,1.5,WNW,4.6,-,N/A,,Overcast,290,2013-09-02 11:55:00
8:15 AM,68.2,67.5,98,29.85,1.5,Calm,Calm,-,N/A,,Overcast,0,2013-09-02 12:15:00
8:35 AM,68.4,67.6,98,29.85,2.0,NW,3.5,-,N/A,,Overcast,320,2013-09-02 12:35:00
8:55 AM,68.7,68.0,98,29.86,3.0,NW,4.6,-,N/A,,Overcast,310,2013-09-02 12:55:00
9:15 AM,68.9,68.0,97,29.86,4.0,NW,3.5,-,N/A,,Overcast,320,2013-09-02 13:15:00
9:35 AM,69.4,68.5,97,29.86,4.0,NW,3.5,-,0.01,,Overcast,320,2013-09-02 13:35:00
9:55 AM,70.3,68.7,95,29.88,5.0,NNW,4.6,-,0.01,,Overcast,330,2013-09-02 13:55:00
10:15 AM,71.4,68.2,89,29.88,5.0,NNW,3.5,-,N/A,,Overcast,340,2013-09-02 14:15:00
10:35 AM,72.3,68.2,87,29.89,7.0,North,6.9,-,N/A,,Overcast,360,2013-09-02 14:35:00
10:55 AM,72.9,67.3,83,29.90,7.0,North,4.6,-,N/A,,Overcast,360,2013-09-02 14:55:00
11:15 AM,73.8,67.6,81,29.90,10.0,North,10.4,-,N/A,,Mostly Cloudy,350,2013-09-02 15:15:00
11:35 AM,75.2,64.9,70,29.91,7.0,North,6.9,-,N/A,,Scattered Clouds,360,2013-09-02 15:35:00
11:55 AM,75.7,64.2,67,29.91,7.0,NNW,9.2,-,N/A,,Mostly Cloudy,340,2013-09-02 15:55:00
12:15 PM,75.9,63.7,66,29.91,7.0,NNW,5.8,-,N/A,,Mostly Cloudy,330,2013-09-02 16:15:00
12:35 PM,76.5,63.3,64,29.91,7.0,NNW,11.5,16.1,N/A,,Scattered Clouds,330,2013-09-02 16:35:00
12:55 PM,77.0,62.4,61,29.91,7.0,NNW,6.9,-,N/A,,Scattered Clouds,330,2013-09-02 16:55:00
1:15 PM,77.7,63.0,60,29.91,7.0,North,6.9,-,N/A,,Scattered Clouds,350,2013-09-02 17:15:00
1:35 PM,78.1,61.2,56,29.90,7.0,NNW,10.4,-,N/A,,Scattered Clouds,340,2013-09-02 17:35:00
1:55 PM,78.8,60.8,54,29.90,10.0,NNW,9.2,-,N/A,,Mostly Cloudy,340,2013-09-02 17:55:00
2:15 PM,78.8,60.6,54,29.90,7.0,NNW,6.9,-,N/A,,Scattered Clouds,330,2013-09-02 18:15:00
2:35 PM,78.6,59.9,52,29.90,7.0,NW,11.5,17.3,N/A,,Mostly Cloudy,320,2013-09-02 18:35:00
2:55 PM,79.3,58.6,49,29.90,7.0,NNW,12.7,17.3,N/A,,Mostly Cloudy,330,2013-09-02 18:55:00
3:15 PM,79.5,57.9,47,29.89,7.0,NNW,8.1,-,N/A,,Mostly Cloudy,340,2013-09-02 19:15:00
3:35 PM,79.2,57.7,48,29.89,10.0,NW,8.1,-,N/A,,Mostly Cloudy,320,2013-09-02 19:35:00
3:55 PM,79.9,57.0,45,29.89,7.0,North,8.1,-,N/A,,Mostly Cloudy,350,2013-09-02 19:55:00
4:15 PM,79.3,55.8,44,29.89,7.0,NW,8.1,-,N/A,,Scattered Clouds,320,2013-09-02 20:15:00
4:35 PM,78.6,56.1,46,29.88,7.0,North,8.1,-,N/A,,Scattered Clouds,360,2013-09-02 20:35:00
4:55 PM,79.3,55.4,44,29.88,10.0,North,12.7,17.3,N/A,,Mostly Cloudy,350,2013-09-02 20:55:00
5:15 PM,79.3,53.8,41,29.88,7.0,NNW,9.2,-,N/A,,Scattered Clouds,340,2013-09-02 21:15:00
5:35 PM,78.6,56.1,46,29.88,4.0,North,9.2,-,N/A,,Haze,350,2013-09-02 21:35:00
5:55 PM,76.3,56.7,51,29.89,5.0,NNW,4.6,-,N/A,,Haze,330,2013-09-02 21:55:00
6:15 PM,76.6,56.7,50,29.89,7.0,NNW,12.7,18.4,N/A,,Scattered Clouds,340,2013-09-02 22:15:00
6:35 PM,76.5,56.3,50,29.89,5.0,NNW,8.1,-,N/A,,Haze,340,2013-09-02 22:35:00
6:55 PM,75.9,56.5,51,29.89,5.0,North,9.2,-,N/A,,Haze,350,2013-09-02 22:55:00
7:15 PM,75.4,56.3,51,29.89,7.0,North,6.9,-,N/A,,Clear,360,2013-09-02 23:15:00
7:35 PM,74.1,55.9,53,29.89,5.0,North,5.8,-,N/A,,Haze,350,2013-09-02 23:35:00
7:55 PM,72.7,55.9,56,29.89,7.0,North,4.6,-,N/A,,Clear,350,2013-09-02 23:55:00
8:15 PM,71.1,56.1,59,29.90,7.0,North,4.6,-,N/A,,Clear,350,2013-09-03 00:15:00
8:35 PM,69.6,56.5,63,29.91,7.0,North,4.6,-,N/A,,Clear,350,2013-09-03 00:35:00
8:55 PM,68.4,56.7,66,29.91,7.0,Calm,Calm,-,N/A,,Clear,0,2013-09-03 00:55:00
9:15 PM,66.0,57.6,74,29.93,7.0,North,4.6,-,N/A,,Clear,360,2013-09-03 01:15:00
9:35 PM,66.6,57.2,72,29.93,7.0,North,4.6,-,N/A,,Clear,350,2013-09-03 01:35:00
9:55 PM,66.0,57.2,73,29.94,7.0,North,6.9,-,N/A,,Clear,360,2013-09-03 01:55:00
10:15 PM,65.3,57.2,75,29.95,10.0,North,6.9,-,N/A,,Clear,360,2013-09-03 02:15:00
10:35 PM,64.6,57.2,77,29.96,7.0,North,4.6,-,N/A,,Clear,360,2013-09-03 02:35:00
10:55 PM,64.0,57.0,78,29.96,7.0,North,6.9,-,N/A,,Scattered Clouds,360,2013-09-03 02:55:00
11:15 PM,63.1,56.7,79,29.96,10.0,North,5.8,-,N/A,,Scattered Clouds,360,2013-09-03 03:15:00
11:35 PM,62.4,56.3,80,29.96,7.0,North,3.5,-,N/A,,Scattered Clouds,360,2013-09-03 03:35:00
11:55 PM,61.5,56.3,83,29.97,10.0,Calm,Calm,-,N/A,,Clear,0,2013-09-03 03:55:00